• In Hungary
  • List of Countries
  • For 7 days
  • Water Temperature
  • Satellite Maps
  • Weather Map
  • News
  • Weather Widgets
  • user-avatar
    Login

    Hourly Weather Shaki

    Today, 20 September, Wednesday

    Time Temperature Precipitation Wind Pressure Humidity
    00:00 +24°C° 0 mm 2 mps 736 mmHg 39%
    01:00 +24°C° 0 mm 2 mps 736 mmHg 39%
    02:00 +23°C° 0 mm 1 mps 736 mmHg 40%
    03:00 +23°C° 0 mm 1 mps 736 mmHg 38%
    04:00 +23°C° 0 mm 1 mps 736 mmHg 38%
    05:00 +23°C° 0 mm 1 mps 736 mmHg 38%
    06:00 +23°C° 0 mm 1 mps 736 mmHg 38%
    07:00 +25°C° 0 mm 1 mps 736 mmHg 36%
    08:00 +27°C° 0 mm 1 mps 736 mmHg 34%
    09:00 +29°C° 0 mm 2 mps 736 mmHg 29%
    10:00 +30°C° 0 mm 2 mps 736 mmHg 27%
    11:00 +31°C° 0 mm 2 mps 736 mmHg 26%
    12:00 +34°C° 0 mm 2 mps 736 mmHg 24%
    13:00 +34°C° 0 mm 2 mps 736 mmHg 23%
    14:00 +33°C° 0 mm 1 mps 735 mmHg 23%
    15:00 +34°C° 0 mm 1 mps 735 mmHg 22%
    16:00 +32°C° 0 mm 1 mps 735 mmHg 25%
    17:00 +30°C° 0 mm 1 mps 735 mmHg 29%
    18:00 +28°C° 0 mm 1 mps 735 mmHg 32%
    19:00 +27°C° 0 mm 1 mps 735 mmHg 33%
    20:00 +27°C° 0 mm 1 mps 735 mmHg 34%
    21:00 +26°C° 0 mm 2 mps 736 mmHg 35%
    22:00 +26°C° 0 mm 2 mps 736 mmHg 36%
    23:00 +25°C° 0 mm 2 mps 736 mmHg 37%

    Tomorrow, 21 September, Thursday

    Time Temperature Precipitation Wind Pressure Humidity
    00:00 +25°C° 0 mm 2 mps 735 mmHg 39%
    01:00 +24°C° 0 mm 2 mps 735 mmHg 39%
    02:00 +24°C° 0 mm 1 mps 735 mmHg 40%
    03:00 +23°C° 0 mm 1 mps 735 mmHg 41%
    04:00 +23°C° 0 mm 1 mps 735 mmHg 41%
    05:00 +23°C° 0 mm 1 mps 735 mmHg 41%
    06:00 +23°C° 0 mm 1 mps 735 mmHg 41%
    07:00 +25°C° 0 mm 1 mps 735 mmHg 36%
    08:00 +28°C° 0 mm 1 mps 735 mmHg 32%
    09:00 +30°C° 0 mm 1 mps 735 mmHg 27%
    10:00 +31°C° 0 mm 2 mps 735 mmHg 26%
    11:00 +32°C° 0 mm 2 mps 735 mmHg 24%
    12:00 +34°C° 0 mm 2 mps 735 mmHg 22%
    13:00 +34°C° 0 mm 2 mps 734 mmHg 22%
    14:00 +35°C° 0 mm 2 mps 734 mmHg 22%
    15:00 +35°C° 0 mm 2 mps 734 mmHg 22%
    16:00 +32°C° 0 mm 2 mps 734 mmHg 25%
    17:00 +30°C° 0 mm 2 mps 734 mmHg 29%
    18:00 +28°C° 0 mm 2 mps 734 mmHg 33%
    19:00 +28°C° 0 mm 2 mps 734 mmHg 35%
    20:00 +27°C° 0 mm 3 mps 734 mmHg 38%
    21:00 +26°C° 0 mm 3 mps 735 mmHg 40%
    22:00 +26°C° 0 mm 3 mps 735 mmHg 41%
    23:00 +25°C° 0 mm 2 mps 735 mmHg 43%

    Day after tomorrow, 22 September, Friday

    Time Temperature Precipitation Wind Pressure Humidity
    00:00 +24°C° 0 mm 2 mps 735 mmHg 45%
    01:00 +24°C° 0 mm 2 mps 735 mmHg 45%
    02:00 +24°C° 0 mm 1 mps 735 mmHg 46%
    03:00 +23°C° 0 mm 1 mps 734 mmHg 46%
    04:00 +23°C° 0 mm 1 mps 734 mmHg 46%
    05:00 +23°C° 0 mm 1 mps 734 mmHg 46%
    06:00 +23°C° 0 mm 1 mps 734 mmHg 46%
    07:00 +25°C° 0 mm 1 mps 734 mmHg 39%
    08:00 +27°C° 0 mm 1 mps 734 mmHg 33%
    09:00 +29°C° 0 mm 1 mps 734 mmHg 26%
    10:00 +30°C° 0 mm 1 mps 734 mmHg 24%
    11:00 +31°C° 0 mm 2 mps 734 mmHg 22%
    12:00 +34°C° 0 mm 2 mps 733 mmHg 20%
    13:00 +34°C° 0 mm 2 mps 733 mmHg 19%
    14:00 +34°C° 0 mm 2 mps 733 mmHg 18%
    15:00 +34°C° 0 mm 3 mps 732 mmHg 18%
    16:00 +31°C° 0 mm 2 mps 732 mmHg 21%
    17:00 +29°C° 0 mm 2 mps 732 mmHg 23%
    18:00 +27°C° 0 mm 2 mps 733 mmHg 26%
    19:00 +27°C° 0 mm 2 mps 733 mmHg 27%
    20:00 +26°C° 0 mm 2 mps 733 mmHg 28%
    21:00 +25°C° 0 mm 2 mps 734 mmHg 29%
    22:00 +25°C° 0 mm 2 mps 734 mmHg 31%
    23:00 +24°C° 0 mm 2 mps 734 mmHg 32%

    23 September, Saturday

    Time Temperature Precipitation Wind Pressure Humidity
    00:00 +24°C° 0 mm 2 mps 734 mmHg 34%
    01:00 +23°C° 0 mm 1 mps 734 mmHg 35%
    02:00 +23°C° 0 mm 1 mps 734 mmHg 35%
    03:00 +23°C° 0 mm 1 mps 734 mmHg 36%
    04:00 +22°C° 0 mm 1 mps 734 mmHg 36%
    05:00 +22°C° 0 mm 1 mps 735 mmHg 36%
    06:00 +22°C° 0 mm 1 mps 735 mmHg 35%
    07:00 +24°C° 0 mm 1 mps 735 mmHg 32%
    08:00 +26°C° 0 mm 1 mps 735 mmHg 29%
    09:00 +29°C° 0 mm 1 mps 736 mmHg 26%
    10:00 +30°C° 0 mm 2 mps 736 mmHg 24%
    11:00 +31°C° 0 mm 2 mps 735 mmHg 23%
    12:00 +32°C° 0 mm 2 mps 735 mmHg 22%
    13:00 +32°C° 0 mm 2 mps 735 mmHg 21%
    14:00 +33°C° 0 mm 3 mps 735 mmHg 21%
    15:00 +34°C° 0 mm 3 mps 735 mmHg 21%
    16:00 +31°C° 0 mm 3 mps 735 mmHg 23%
    17:00 +29°C° 0 mm 2 mps 736 mmHg 26%
    18:00 +27°C° 0 mm 2 mps 736 mmHg 28%
    19:00 +26°C° 0 mm 2 mps 736 mmHg 28%
    20:00 +26°C° 0 mm 2 mps 737 mmHg 28%
    21:00 +25°C° 0 mm 3 mps 737 mmHg 28%
    22:00 +24°C° 0 mm 2 mps 737 mmHg 28%
    23:00 +24°C° 0 mm 2 mps 737 mmHg 29%

    24 September, Sunday

    Time Temperature Precipitation Wind Pressure Humidity
    00:00 +23°C° 0 mm 2 mps 738 mmHg 30%
    01:00 +23°C° 0 mm 2 mps 738 mmHg 30%
    02:00 +23°C° 0 mm 2 mps 738 mmHg 29%
    03:00 +21°C° 0 mm 2 mps 738 mmHg 29%
    04:00 +21°C° 0 mm 2 mps 738 mmHg 29%
    05:00 +21°C° 0 mm 2 mps 738 mmHg 29%
    06:00 +21°C° 0 mm 2 mps 738 mmHg 28%
    07:00 +24°C° 0 mm 2 mps 738 mmHg 25%
    08:00 +26°C° 0 mm 2 mps 739 mmHg 22%
    09:00 +29°C° 0 mm 2 mps 739 mmHg 20%
    10:00 +30°C° 0 mm 2 mps 739 mmHg 19%
    11:00 +31°C° 0 mm 2 mps 738 mmHg 18%
    12:00 +32°C° 0 mm 2 mps 738 mmHg 17%
    13:00 +33°C° 0 mm 3 mps 738 mmHg 17%
    14:00 +33°C° 0 mm 3 mps 738 mmHg 16%
    15:00 +34°C° 0 mm 3 mps 738 mmHg 16%
    16:00 +31°C° 0 mm 3 mps 738 mmHg 19%
    17:00 +29°C° 0 mm 3 mps 738 mmHg 21%
    18:00 +27°C° 0 mm 2 mps 738 mmHg 24%
    19:00 +26°C° 0 mm 3 mps 739 mmHg 26%
    20:00 +25°C° 0 mm 3 mps 739 mmHg 28%
    21:00 +24°C° 0 mm 3 mps 739 mmHg 29%
    22:00 +24°C° 0 mm 3 mps 739 mmHg 31%
    23:00 +23°C° 0 mm 2 mps 739 mmHg 33%

    25 September, Monday

    Time Temperature Precipitation Wind Pressure Humidity
    00:00 +23°C° 0 mm 2 mps 739 mmHg 34%
    01:00 +21°C° 0 mm 2 mps 739 mmHg 34%
    02:00 +21°C° 0 mm 2 mps 739 mmHg 34%
    03:00 +21°C° 0 mm 2 mps 739 mmHg 34%
    04:00 +20°C° 0 mm 2 mps 740 mmHg 34%
    05:00 +20°C° 0 mm 2 mps 740 mmHg 33%
    06:00 +21°C° 0 mm 1 mps 740 mmHg 33%
    07:00 +23°C° 0 mm 2 mps 740 mmHg 31%
    08:00 +25°C° 0 mm 2 mps 740 mmHg 29%
    09:00 +27°C° 0 mm 3 mps 741 mmHg 27%
    10:00 +28°C° 0 mm 3 mps 740 mmHg 27%
    11:00 +29°C° 0 mm 3 mps 740 mmHg 27%
    12:00 +30°C° 0 mm 4 mps 740 mmHg 27%
    13:00 +30°C° 0 mm 4 mps 740 mmHg 27%
    14:00 +32°C° 0 mm 4 mps 740 mmHg 26%
    15:00 +32°C° 0 mm 4 mps 740 mmHg 26%
    16:00 +29°C° 0 mm 3 mps 740 mmHg 29%
    17:00 +27°C° 0 mm 3 mps 740 mmHg 33%
    18:00 +25°C° 0 mm 3 mps 740 mmHg 36%
    19:00 +24°C° 0 mm 3 mps 741 mmHg 38%
    20:00 +22°C° 0 mm 3 mps 741 mmHg 39%
    21:00 +22°C° 0 mm 4 mps 741 mmHg 40%
    22:00 +21°C° 0 mm 3 mps 741 mmHg 41%
    23:00 +20°C° 0 mm 3 mps 741 mmHg 42%
    Show more